This demonstration page uses our WeatherBlox Daily Observations layout. Learn more.

38.88101, -77.10428

Hourly Observations for January 4, 2016

Temp ( °F °C ) Dew Point ( °F °C ) Humidity (%) Winds ( mph kmh ) Pressure ( in mb ) Visibility ( mi km ) Precip ( " mm )
12:52 am 00:52 Partly Cloudy 35 1.7 24 -4.4 64 64 NNW 7 11 29.98 1015 10 16.0934 0 0
1:52 am 01:52 Partly Cloudy 35 1.7 24 -4.4 64 64 NNW 5 7 29.97 1015 10 16.0934 0 0
2:52 am 02:52 Mostly Clear 36 2.2 23 -5 59 59 NNW 5 7 29.97 1015 10 16.0934 0 0
3:52 am 03:52 Mostly Clear 34 1.1 24 -4.4 67 67 NNW 8 13 29.98 1015 10 16.0934 0 0
4:52 am 04:52 Mostly Clear 35 1.7 24 -4.4 64 64 NNW 10 17 29.99 1016 10 16.0934 0 0
5:52 am 05:52 Partly Cloudy 34 1.1 22 -5.6 61 61 NNW 9 15 30.02 1017 10 16.0934 0 0
6:52 am 06:52 Mostly Cloudy 34 1.1 22 -5.6 61 61 NW 10 17 30.04 1017 10 16.0934 0 0
7:52 am 07:52 Mostly Cloudy 35 1.7 20 -6.7 54 54 NNW 16 26 30.06 1018 10 16.0934 0 0
8:52 am 08:52 Partly Cloudy 33 0.6 13 -10.6 43 43 NNW 24 39 30.09 1019 10 16.0934 0 0
9:52 am 09:52 Mostly Cloudy 34 1.1 14 -10 44 44 NW 16 26 30.11 1020 10 16.0934 0 0
10:52 am 10:52 Mostly Sunny 36 2.2 15 -9.4 42 42 NNW 18 30 30.12 1020 10 16.0934 0 0
11:52 am 11:52 Partly Cloudy 37 2.8 15 -9.4 41 41 NNW 21 33 30.11 1020 10 16.0934 0 0
12:52 pm 12:52 Partly Cloudy 36 2.2 10 -12.2 34 34 NNW 23 37 30.11 1020 10 16.0934 0 0
1:52 pm 13:52 Partly Cloudy 38 3.3 10 -12.2 31 31 NNW 21 33 30.1 1019 10 16.0934 0 0
2:52 pm 14:52 Partly Cloudy 37 2.8 10 -12.2 33 33 N 23 37 30.12 1020 10 16.0934 0 0
3:52 pm 15:52 Mostly Cloudy 34 1.1 8 -13.3 34 34 NNW 18 30 30.16 1022 10 16.0934 0 0
4:52 pm 16:52 Mostly Cloudy 32 0 7 -13.9 35 35 N 24 39 30.2 1023 10 16.0934 0 0
5:52 pm 17:52 Mostly Clear 31 -0.6 5 -15 33 33 NW 17 28 30.24 1024 10 16.0934 0 0
6:52 pm 18:52 Mostly Clear 30 -1.1 5 -15 34 34 NNW 21 33 30.28 1026 10 16.0934 0 0
7:52 pm 19:52 Mostly Clear 28 -2.2 5 -15 37 37 N 24 39 30.32 1027 10 16.0934 0 0
8:52 pm 20:52 Mostly Clear 27 -2.8 6 -14.4 41 41 N 21 33 30.34 1028 10 16.0934 0 0
9:52 pm 21:52 Mostly Clear 26 -3.3 4 -15.6 38 38 N 20 31 30.38 1029 10 16.0934 0 0
10:52 pm 22:52 Clear 24 -4.4 4 -15.6 42 42 N 18 30 30.42 1030 10 16.0934 0 0
11:52 pm 23:52 Clear 22 -5.6 2 -16.7 42 42 N 24 39 30.45 1031 10 16.0934 0 0

Powered by AerisWeather